Time,TemperatureF,DewpointF,PressureIn,WindDirection,WindDirectionDegrees,WindSpeedMPH,WindSpeedGustMPH,Humidity,HourlyPrecipIn,Conditions,Clouds,dailyrainin,SoftwareType,DateUTC
2013-07-28 00:02:00,57.0,53.0,29.93,SW,229,0.0,1.0,87,0.00,,,0.00,,2013-07-28 04:02:00,
2013-07-28 00:12:00,57.0,53.0,29.93,SW,229,0.0,1.0,87,0.00,,,0.00,,2013-07-28 04:12:00,
2013-07-28 00:22:00,57.0,53.0,29.93,SW,229,0.0,1.0,86,0.00,,,0.00,,2013-07-28 04:22:00,
2013-07-28 00:32:00,57.0,53.0,29.92,SW,229,0.0,1.0,87,0.00,,,0.00,,2013-07-28 04:32:00,
2013-07-28 00:53:00,57.0,53.0,29.92,SW,229,0.0,1.0,87,0.00,,,0.00,,2013-07-28 04:53:00,
2013-07-28 01:02:00,57.0,53.0,29.92,SSW,213,0.0,1.0,86,0.00,,,0.00,,2013-07-28 05:02:00,
2013-07-28 01:12:00,57.0,52.0,29.92,SW,226,0.0,2.0,84,0.00,,,0.00,,2013-07-28 05:12:00,
2013-07-28 01:22:00,57.0,53.0,29.92,SW,217,0.0,2.0,85,0.00,,,0.00,,2013-07-28 05:22:00,
2013-07-28 01:32:00,56.0,52.0,29.92,SSW,205,1.0,1.0,86,0.00,,,0.00,,2013-07-28 05:32:00,
2013-07-28 01:43:00,56.0,52.0,29.92,SW,225,1.0,2.0,86,0.00,,,0.00,,2013-07-28 05:43:00,
2013-07-28 01:52:00,56.0,52.0,29.92,SW,221,1.0,2.0,86,0.00,,,0.00,,2013-07-28 05:52:00,
2013-07-28 02:02:00,56.0,52.0,29.92,SW,222,1.0,2.0,86,0.00,,,0.00,,2013-07-28 06:02:00,
2013-07-28 02:12:00,56.0,51.0,29.92,SW,226,1.0,3.0,84,0.00,,,0.00,,2013-07-28 06:12:00,
2013-07-28 02:22:00,56.0,51.0,29.91,SW,217,2.0,4.0,84,0.00,,,0.00,,2013-07-28 06:22:00,
2013-07-28 02:32:00,56.0,51.0,29.91,SW,232,2.0,5.0,84,0.00,,,0.00,,2013-07-28 06:32:00,
2013-07-28 02:43:00,55.0,51.0,29.92,WSW,245,2.0,3.0,85,0.00,,,0.00,,2013-07-28 06:43:00,
2013-07-28 02:52:00,55.0,51.0,29.91,SW,220,1.0,4.0,86,0.00,,,0.00,,2013-07-28 06:52:00,
2013-07-28 03:02:00,55.0,51.0,29.91,SSW,205,2.0,4.0,87,0.00,,,0.00,,2013-07-28 07:02:00,
2013-07-28 03:12:00,55.0,51.0,29.91,SW,226,2.0,4.0,87,0.00,,,0.00,,2013-07-28 07:12:00,
2013-07-28 03:23:00,55.0,51.0,29.91,SW,215,2.0,5.0,86,0.00,,,0.00,,2013-07-28 07:23:00,
2013-07-28 03:32:00,55.0,51.0,29.91,SW,228,3.0,4.0,86,0.00,,,0.00,,2013-07-28 07:32:00,
2013-07-28 03:53:00,55.0,51.0,29.91,West,260,3.0,7.0,85,0.00,,,0.00,,2013-07-28 07:53:00,
2013-07-28 04:02:00,55.0,51.0,29.91,SW,236,3.0,7.0,85,0.00,,,0.00,,2013-07-28 08:02:00,
2013-07-28 04:12:00,55.0,51.0,29.91,SW,218,3.0,7.0,85,0.00,,,0.00,,2013-07-28 08:12:00,
2013-07-28 04:22:00,55.0,51.0,29.91,SW,222,3.0,5.0,85,0.00,,,0.00,,2013-07-28 08:22:00,
2013-07-28 04:33:00,55.0,51.0,29.90,SSW,210,3.0,6.0,85,0.00,,,0.00,,2013-07-28 08:33:00,
2013-07-28 04:42:00,55.0,51.0,29.90,WSW,245,3.0,7.0,85,0.00,,,0.00,,2013-07-28 08:42:00,
2013-07-28 04:53:00,54.0,50.0,29.90,SSW,205,2.0,6.0,85,0.00,,,0.00,,2013-07-28 08:53:00,
2013-07-28 05:02:00,54.0,50.0,29.91,WSW,243,3.0,7.0,86,0.00,,,0.00,,2013-07-28 09:02:00,
2013-07-28 05:12:00,54.0,50.0,29.91,SW,221,3.0,8.0,86,0.00,,,0.00,,2013-07-28 09:12:00,
2013-07-28 05:22:00,54.0,50.0,29.90,SW,224,2.0,6.0,86,0.00,,,0.00,,2013-07-28 09:22:00,
2013-07-28 05:32:00,53.0,49.0,29.91,West,274,2.0,6.0,87,0.00,,,0.00,,2013-07-28 09:32:00,
2013-07-28 05:43:00,53.0,49.0,29.90,SW,227,2.0,5.0,87,0.00,,,0.00,,2013-07-28 09:43:00,
2013-07-28 05:53:00,53.0,49.0,29.91,SW,220,2.0,7.0,87,0.00,,,0.00,,2013-07-28 09:53:00,
2013-07-28 06:02:00,53.0,50.0,29.90,SW,227,2.0,6.0,88,0.00,,,0.00,,2013-07-28 10:02:00,
2013-07-28 06:12:00,53.0,50.0,29.91,SW,223,3.0,7.0,88,0.00,,,0.00,,2013-07-28 10:12:00,
2013-07-28 06:22:00,53.0,50.0,29.91,SW,221,3.0,5.0,88,0.00,,,0.00,,2013-07-28 10:22:00,
2013-07-28 06:33:00,53.0,50.0,29.92,SW,225,3.0,6.0,89,0.00,,,0.00,,2013-07-28 10:33:00,
2013-07-28 06:42:00,53.0,50.0,29.92,SW,225,3.0,6.0,89,0.00,,,0.00,,2013-07-28 10:42:00,
2013-07-28 06:52:00,53.0,50.0,29.92,SW,222,4.0,6.0,89,0.00,,,0.00,,2013-07-28 10:52:00,
2013-07-28 07:12:00,52.0,49.0,29.93,SW,221,2.0,5.0,89,0.00,,,0.00,,2013-07-28 11:12:00,
2013-07-28 07:22:00,52.0,49.0,29.93,SW,231,3.0,7.0,89,0.00,,,0.00,,2013-07-28 11:22:00,
2013-07-28 07:33:00,52.0,49.0,29.94,SSW,193,4.0,7.0,89,0.00,,,0.00,,2013-07-28 11:33:00,
2013-07-28 07:43:00,52.0,49.0,29.94,WSW,240,4.0,8.0,89,0.00,,,0.00,,2013-07-28 11:43:00,
2013-07-28 07:54:00,53.0,50.0,29.94,SW,236,4.0,8.0,89,0.00,,,0.00,,2013-07-28 11:54:00,
2013-07-28 08:02:00,53.0,50.0,29.94,SW,233,4.0,8.0,88,0.00,,,0.00,,2013-07-28 12:02:00,
2013-07-28 08:12:00,54.0,50.0,29.95,SW,234,4.0,10.0,87,0.00,,,0.00,,2013-07-28 12:12:00,
2013-07-28 08:22:00,54.0,50.0,29.95,SW,231,5.0,8.0,87,0.00,,,0.00,,2013-07-28 12:22:00,
2013-07-28 08:33:00,54.0,50.0,29.95,West,274,5.0,10.0,87,0.00,,,0.00,,2013-07-28 12:33:00,
2013-07-28 08:43:00,54.0,50.0,29.96,West,271,4.0,9.0,87,0.00,,,0.00,,2013-07-28 12:43:00,
2013-07-28 08:53:00,54.0,50.0,29.96,West,274,3.0,7.0,87,0.00,,,0.00,,2013-07-28 12:53:00,
2013-07-28 09:12:00,55.0,51.0,29.95,SW,229,3.0,6.0,86,0.00,,,0.00,,2013-07-28 13:12:00,
2013-07-28 09:22:00,56.0,51.0,29.95,SW,235,3.0,10.0,83,0.00,,,0.00,,2013-07-28 13:22:00,
2013-07-28 09:32:00,57.0,51.0,29.95,SW,229,4.0,8.0,81,0.00,,,0.00,,2013-07-28 13:32:00,
2013-07-28 09:43:00,57.0,51.0,29.95,WSW,249,5.0,9.0,80,0.00,,,0.00,,2013-07-28 13:43:00,
2013-07-28 09:52:00,58.0,52.0,29.96,SSW,204,6.0,10.0,79,0.00,,,0.00,,2013-07-28 13:52:00,
2013-07-28 10:02:00,57.0,51.0,29.96,SW,227,4.0,11.0,81,0.00,,,0.00,,2013-07-28 14:02:00,
2013-07-28 10:12:00,57.0,51.0,29.95,WSW,237,4.0,10.0,80,0.00,,,0.00,,2013-07-28 14:12:00,
2013-07-28 10:23:00,57.0,52.0,29.95,WSW,250,4.0,8.0,82,0.00,,,0.00,,2013-07-28 14:23:00,
2013-07-28 10:33:00,57.0,51.0,29.96,SW,218,4.0,6.0,81,0.00,,,0.00,,2013-07-28 14:33:00,
2013-07-28 10:53:00,57.0,51.0,29.96,NW,309,2.0,6.0,81,0.00,,,0.00,,2013-07-28 14:53:00,
2013-07-28 11:03:00,57.0,51.0,29.96,SW,218,3.0,6.0,81,0.00,,,0.00,,2013-07-28 15:03:00,
2013-07-28 11:13:00,57.0,52.0,29.96,West,262,4.0,9.0,84,0.00,,,0.00,,2013-07-28 15:13:00,
2013-07-28 11:22:00,57.0,52.0,29.96,WSW,243,3.0,8.0,84,0.00,,,0.00,,2013-07-28 15:22:00,
2013-07-28 11:32:00,58.0,53.0,29.96,West,269,4.0,8.0,83,0.00,,,0.00,,2013-07-28 15:32:00,
2013-07-28 11:43:00,59.0,52.0,29.95,SSW,207,5.0,11.0,78,0.00,,,0.00,,2013-07-28 15:43:00,
2013-07-28 11:53:00,60.0,53.0,29.95,WSW,242,4.0,10.0,77,0.00,,,0.00,,2013-07-28 15:53:00,
2013-07-28 12:02:00,61.0,52.0,29.95,SW,218,4.0,12.0,73,0.00,,,0.00,,2013-07-28 16:02:00,
2013-07-28 12:12:00,62.0,53.0,29.95,WNW,289,2.0,8.0,73,0.00,,,0.00,,2013-07-28 16:12:00,
2013-07-28 12:22:00,62.0,52.0,29.95,West,262,4.0,9.0,71,0.00,,,0.00,,2013-07-28 16:22:00,
2013-07-28 12:33:00,63.0,53.0,29.94,SSW,212,2.0,7.0,71,0.00,,,0.00,,2013-07-28 16:33:00,
2013-07-28 12:43:00,64.0,53.0,29.94,SW,233,5.0,9.0,67,0.00,,,0.00,,2013-07-28 16:43:00,
2013-07-28 13:02:00,65.0,54.0,29.94,SSW,213,5.0,10.0,67,0.00,,,0.00,,2013-07-28 17:02:00,
2013-07-28 13:13:00,65.0,53.0,29.95,West,260,6.0,15.0,65,0.00,,,0.00,,2013-07-28 17:13:00,
2013-07-28 13:23:00,64.0,52.0,29.95,SW,224,4.0,12.0,65,0.00,,,0.00,,2013-07-28 17:23:00,
2013-07-28 13:32:00,64.0,53.0,29.95,SW,223,5.0,11.0,68,0.00,,,0.00,,2013-07-28 17:32:00,
2013-07-28 14:03:00,63.0,53.0,29.95,WSW,250,2.0,6.0,70,0.00,,,0.00,,2013-07-28 18:03:00,
2013-07-28 14:22:00,63.0,54.0,29.95,West,272,2.0,6.0,72,0.00,,,0.00,,2013-07-28 18:22:00,
2013-07-28 14:33:00,63.0,53.0,29.96,West,269,3.0,5.0,70,0.00,,,0.00,,2013-07-28 18:33:00,
2013-07-28 14:43:00,63.0,54.0,29.96,NW,325,2.0,6.0,72,0.00,,,0.00,,2013-07-28 18:43:00,
2013-07-28 14:52:00,64.0,55.0,29.96,West,281,4.0,8.0,72,0.00,,,0.00,,2013-07-28 18:52:00,
2013-07-28 15:02:00,64.0,54.0,29.96,NW,310,3.0,9.0,70,0.00,,,0.00,,2013-07-28 19:02:00,
2013-07-28 15:12:00,65.0,55.0,29.96,WNW,298,4.0,12.0,70,0.00,,,0.00,,2013-07-28 19:12:00,
2013-07-28 15:22:00,65.0,54.0,29.96,NW,317,4.0,11.0,68,0.00,,,0.00,,2013-07-28 19:22:00,
2013-07-28 15:33:00,65.0,54.0,29.96,WNW,287,3.0,9.0,67,0.00,,,0.00,,2013-07-28 19:33:00,
2013-07-28 15:52:00,65.0,53.0,29.97,WNW,295,4.0,12.0,65,0.00,,,0.00,,2013-07-28 19:52:00,
2013-07-28 16:03:00,66.0,53.0,29.97,WNW,296,5.0,12.0,63,0.00,,,0.00,,2013-07-28 20:03:00,
2013-07-28 16:23:00,65.0,53.0,29.96,NW,315,4.0,10.0,65,0.00,,,0.00,,2013-07-28 20:23:00,
2013-07-28 16:33:00,65.0,53.0,29.97,WSW,254,5.0,12.0,64,0.00,,,0.00,,2013-07-28 20:33:00,
2013-07-28 16:52:00,65.0,52.0,29.98,WNW,303,5.0,11.0,63,0.00,,,0.00,,2013-07-28 20:52:00,
2013-07-28 17:03:00,66.0,54.0,29.98,NW,318,4.0,19.0,66,0.00,,,0.00,,2013-07-28 21:03:00,
2013-07-28 17:13:00,66.0,53.0,29.98,NW,314,6.0,13.0,62,0.00,,,0.00,,2013-07-28 21:13:00,
2013-07-28 17:22:00,65.0,52.0,29.98,NW,311,6.0,9.0,62,0.00,,,0.00,,2013-07-28 21:22:00,
2013-07-28 17:33:00,66.0,53.0,29.98,WNW,296,3.0,8.0,64,0.00,,,0.00,,2013-07-28 21:33:00,
2013-07-28 17:44:00,67.0,54.0,29.98,NW,321,6.0,17.0,63,0.00,,,0.00,,2013-07-28 21:44:00,
2013-07-28 17:52:00,66.0,53.0,29.98,NNW,328,5.0,10.0,64,0.00,,,0.00,,2013-07-28 21:52:00,
2013-07-28 18:02:00,65.0,54.0,29.98,NNW,342,4.0,7.0,67,0.00,,,0.00,,2013-07-28 22:02:00,
2013-07-28 18:12:00,66.0,54.0,29.98,NW,310,3.0,8.0,66,0.00,,,0.00,,2013-07-28 22:12:00,
2013-07-28 18:22:00,66.0,54.0,29.98,West,261,4.0,9.0,65,0.00,,,0.00,,2013-07-28 22:22:00,
2013-07-28 18:32:00,67.0,53.0,29.99,NW,323,5.0,8.0,61,0.00,,,0.00,,2013-07-28 22:32:00,
2013-07-28 18:43:00,68.0,54.0,29.98,SW,236,3.0,9.0,60,0.00,,,0.00,,2013-07-28 22:43:00,
2013-07-28 18:52:00,68.0,54.0,29.98,West,280,3.0,9.0,60,0.00,,,0.00,,2013-07-28 22:52:00,
2013-07-28 19:03:00,68.0,54.0,29.99,NNW,338,3.0,7.0,62,0.00,,,0.00,,2013-07-28 23:03:00,
2013-07-28 19:12:00,68.0,54.0,29.99,NW,323,6.0,9.0,61,0.00,,,0.00,,2013-07-28 23:12:00,
2013-07-28 19:22:00,68.0,54.0,29.99,West,273,3.0,12.0,60,0.00,,,0.00,,2013-07-28 23:22:00,
2013-07-28 19:32:00,68.0,53.0,29.99,NNW,343,4.0,8.0,59,0.00,,,0.00,,2013-07-28 23:32:00,
2013-07-28 19:43:00,68.0,53.0,29.99,NW,305,3.0,10.0,59,0.00,,,0.00,,2013-07-28 23:43:00,
2013-07-28 19:53:00,68.0,53.0,30.00,West,276,3.0,7.0,59,0.00,,,0.00,,2013-07-28 23:53:00,
2013-07-28 20:03:00,68.0,53.0,30.00,WNW,295,2.0,5.0,59,0.00,,,0.00,,2013-07-29 00:03:00,
2013-07-28 20:22:00,67.0,53.0,30.01,West,262,1.0,4.0,61,0.00,,,0.00,,2013-07-29 00:22:00,
2013-07-28 20:32:00,67.0,54.0,30.01,NW,323,1.0,3.0,62,0.00,,,0.00,,2013-07-29 00:32:00,
2013-07-28 20:52:00,67.0,54.0,30.01,NNW,328,0.0,0.0,62,0.00,,,0.00,,2013-07-29 00:52:00,
2013-07-28 21:02:00,66.0,53.0,30.01,NNW,328,0.0,0.0,62,0.00,,,0.00,,2013-07-29 01:02:00,
2013-07-28 21:14:00,65.0,55.0,30.01,NW,326,0.0,0.0,71,0.00,,,0.00,,2013-07-29 01:14:00,
2013-07-28 21:28:00,63.0,55.0,30.01,NW,326,0.0,0.0,75,0.00,,,0.00,,2013-07-29 01:28:00,
2013-07-28 21:57:00,58.0,54.0,30.02,NW,326,0.0,0.0,88,0.00,,,0.00,,2013-07-29 01:57:00,
2013-07-28 22:05:00,57.0,54.0,30.02,NW,326,0.0,0.0,90,0.00,,,0.00,,2013-07-29 02:05:00,
2013-07-28 22:14:00,56.0,53.0,30.03,NW,326,0.0,0.0,91,0.00,,,0.00,,2013-07-29 02:14:00,
2013-07-28 23:04:00,54.0,52.0,30.03,West,279,0.0,0.0,94,0.00,,,0.00,,2013-07-29 03:04:00,
2013-07-28 23:17:00,54.0,52.0,30.03,West,279,0.0,0.0,94,0.00,,,0.00,,2013-07-29 03:17:00,
2013-07-28 23:24:00,54.0,53.0,30.03,West,279,0.0,0.0,95,0.00,,,0.00,,2013-07-29 03:24:00,
2013-07-28 23:48:00,54.0,53.0,30.04,WSW,247,0.0,0.0,95,0.00,,,0.00,,2013-07-29 03:48:00,
2013-07-28 23:57:00,53.0,51.0,30.04,WSW,247,0.0,0.0,94,0.00,,,0.00,,2013-07-29 03:57:00,